Theta_e
324 323 323 324 325 325 325 325 325 326 327 326 325 324 326 329 329 327 325 325 326 330 333 333 333 334 334 333 330 327 326 320 319 320 319 319 319 319 317 317 319 317 317 317
325 325 324 325 324 324 325 324 324 326 327 326 326 325 327 327 329 327 326 326 326 331 333 333 333 333 333 331 327 326 326 324 322 321 321 321 320 317 318 318 318 316 317 317
325 326 325 324 323 322 322 323 324 326 327 327 327 326 325 327 329 328 326 327 328 332 333 334 334 333 331 328 326 325 325 324 324 321 320 319 317 318 318 317 316 318 316 316
325 326 324 324 324 325 325 326 326 325 325 325 326 327 329 329 330 329 328 328 330 331 333 333 333 332 330 325 323 324 324 323 322 320 318 318 317 317 316 316 315 314 315 314
326 326 325 324 325 326 325 325 326 326 326 326 325 326 326 329 332 331 329 329 330 331 331 332 332 330 326 324 323 323 323 322 320 319 318 317 316 315 314 312 314 315 313 311
326 325 325 325 325 326 325 324 324 325 325 327 329 330 330 330 330 331 330 330 330 331 331 330 327 325 324 323 322 322 322 320 319 318 316 316 315 313 312 314 313 312 311 311
329 329 326 325 325 325 325 327 328 329 330 332 331 330 329 331 330 326 331 330 329 330 328 327 326 325 323 322 321 321 321 319 318 317 316 315 313 312 313 313 311 310 310 309
328 328 328 327 326 325 326 330 328 328 328 330 330 329 328 326 325 325 325 325 328 328 326 325 324 323 323 322 321 321 320 319 318 317 315 313 312 313 312 311 309 310 309 308
328 328 328 327 326 325 326 328 328 330 329 327 328 329 327 326 326 325 324 324 325 325 325 324 323 322 322 321 321 320 318 318 318 316 315 313 311 311 310 309 310 309 308 309
327 328 327 327 326 326 325 325 327 327 329 329 327 328 330 327 326 325 324 323 323 323 322 322 321 320 320 319 319 318 317 318 317 315 314 312 310 309 308 309 309 308 308 308
327 328 328 328 328 328 327 328 327 329 330 332 329 327 327 325 323 323 322 321 321 321 320 320 319 318 318 317 317 316 316 317 316 314 312 310 309 308 308 308 308 308 307 307
327 331 332 329 327 328 327 327 327 329 328 327 331 330 325 323 322 322 321 320 320 319 318 318 317 316 316 316 315 315 315 315 313 311 310 309 308 309 308 307 307 307 306 305
328 330 330 330 329 328 329 329 326 325 326 326 328 325 325 322 322 321 320 319 319 318 317 316 316 315 314 313 313 314 313 312 310 309 308 307 307 307 307 306 306 305 305 305
324 326 327 328 327 327 328 328 326 326 330 325 325 325 325 323 323 321 319 318 317 316 317 316 314 313 312 311 311 310 310 309 308 308 307 306 306 306 306 306 306 306 306 305
326 328 327 327 327 327 326 325 324 324 324 327 325 324 324 324 322 320 318 317 316 317 317 315 313 311 310 308 306 305 306 307 307 306 305 306 306 306 306 305 305 306 306 307
326 329 328 328 326 326 326 325 322 321 320 321 322 323 323 321 319 317 317 318 318 316 314 312 311 309 307 306 304 303 304 306 306 306 305 306 305 306 306 306 307 308 307 307
328 330 328 329 326 326 328 323 324 323 322 322 322 322 320 319 316 318 318 316 315 314 312 310 308 306 305 304 303 304 304 305 305 305 306 306 306 307 307 307 307 307 306 308
325 329 328 329 325 330 325 323 321 321 321 323 322 321 319 317 316 318 316 314 313 312 310 308 306 305 305 305 303 304 305 305 305 306 307 307 307 307 308 307 307 307 306 307
324 326 330 332 330 325 325 324 322 321 323 321 321 319 316 316 316 317 315 314 312 310 308 306 305 305 305 304 305 305 304 305 306 307 307 306 307 307 307 307 307 307 307 307
323 324 328 327 327 327 328 323 321 320 322 320 318 316 318 318 319 316 314 312 310 308 306 305 306 305 305 304 304 305 305 306 307 307 307 307 307 307 307 306 307 307 307 307
327 327 326 326 327 327 323 322 320 321 324 318 315 317 317 317 315 314 313 311 309 307 305 305 305 304 304 305 306 306 306 307 307 306 307 307 306 306 306 306 307 306 306 306
326 327 327 327 327 328 320 321 323 320 316 316 317 316 315 314 314 313 311 309 307 304 305 305 304 305 305 305 306 306 306 307 306 306 307 304 306 307 306 305 306 306 305 306
325 327 328 326 325 322 317 315 315 315 316 316 315 315 314 313 312 311 308 307 305 305 305 304 304 305 306 306 305 304 306 306 306 306 305 305 306 306 305 305 305 304 304 305
322 320 321 319 319 316 315 316 316 315 315 315 314 313 312 310 309 307 306 305 304 304 305 304 305 306 304 303 305 305 306 306 305 305 306 305 305 305 305 304 305 302 302 303
320 319 317 316 317 317 318 317 316 315 314 313 312 310 309 307 306 305 305 304 304 305 304 304 306 305 305 306 306 306 306 305 304 305 305 304 305 306 305 304 304 302 302 301
317 317 315 320 317 316 317 317 316 314 312 311 309 307 306 306 304 305 305 305 305 303 305 306 305 306 306 306 306 306 306 301 303 303 304 304 305 306 305 304 303 302 302 302
Wind_Speed
16 10 13 16 15 16 18 14 16 10 11 8 7 12 13 16 10 11 15 18 18 18 18 15 13 9 9 6 1 1 4 7 7 9 13 14 17 17 21 20 20 23 28 28
7 13 13 7 10 13 17 10 16 2 8 3 6 14 14 15 11 11 12 13 12 19 18 17 14 10 8 4 2 1 3 8 10 10 13 15 19 23 21 22 24 29 25 28
11 13 5 7 10 10 14 14 17 10 7 2 8 16 19 19 14 10 12 9 11 16 19 15 15 12 8 7 2 3 4 9 9 16 14 17 25 22 24 26 30 26 32 34
8 5 8 8 10 12 13 11 14 7 11 11 14 15 17 9 15 11 9 8 9 10 14 11 15 15 8 4 4 5 6 10 10 17 19 23 23 26 30 30 33 34 31 31
10 4 3 9 8 9 11 10 12 14 14 16 18 14 17 19 14 13 8 9 7 10 11 15 10 9 7 4 6 9 6 10 11 16 21 25 26 30 33 37 33 27 28 33
12 2 7 10 9 8 11 14 15 16 15 14 5 11 13 5 4 10 14 11 9 11 10 7 7 3 7 9 12 8 9 8 12 17 27 23 26 30 36 29 28 33 34 34
4 16 6 2 10 11 9 10 10 12 10 8 5 4 11 16 9 4 17 13 12 11 7 7 9 8 13 7 9 12 13 16 18 23 20 22 26 30 24 30 33 38 35 35
11 7 4 4 4 8 11 6 8 15 13 9 7 6 6 13 18 17 14 14 9 12 4 2 11 10 13 13 12 11 9 15 23 17 17 23 22 20 27 32 39 32 29 31
9 8 3 6 5 7 8 7 7 9 13 13 12 5 10 6 9 12 11 10 8 6 3 7 9 10 7 16 19 25 30 26 14 20 21 17 23 28 32 35 31 31 30 27
8 14 15 7 1 9 11 10 9 7 9 12 11 10 2 3 10 12 13 11 11 9 10 10 6 12 18 19 17 14 17 11 14 14 17 25 27 31 30 28 27 30 25 27
12 11 14 16 3 11 3 8 3 4 4 10 11 4 9 8 8 7 9 14 9 8 12 14 18 20 15 18 22 19 17 17 18 18 22 26 31 30 29 29 27 25 25 24
9 5 9 17 10 12 13 15 12 7 10 9 8 5 10 5 9 6 8 8 11 13 17 19 21 21 25 24 26 22 23 19 16 19 22 29 26 22 24 24 23 22 24 22
11 4 7 9 7 7 7 11 2 5 4 8 10 8 9 5 12 13 12 12 14 17 20 20 21 24 27 28 25 23 21 20 20 22 25 31 24 26 23 17 18 18 16 13
2 6 12 12 16 8 6 11 10 7 6 9 11 15 8 12 3 7 12 12 17 20 19 22 24 26 28 28 31 24 22 20 21 21 24 22 21 18 12 13 16 18 19 16
3 8 13 16 18 18 16 13 14 15 13 10 14 10 12 12 9 13 19 21 21 18 22 25 26 28 28 30 31 29 23 20 22 25 21 20 16 13 13 15 14 16 16 15
2 8 11 14 18 16 17 13 11 14 15 12 8 5 11 13 18 21 20 19 20 21 23 23 24 25 24 24 25 23 21 18 21 17 16 13 12 15 18 15 15 17 16 13
10 7 8 13 16 17 11 8 8 5 6 6 5 7 8 12 18 18 17 18 18 19 18 20 22 20 23 22 22 19 19 17 18 10 12 16 17 16 15 15 13 14 13 11
7 9 6 8 11 9 4 6 6 4 8 12 11 11 14 17 17 14 15 17 14 13 15 18 17 20 21 15 20 15 13 11 9 13 14 14 13 15 12 12 13 13 13 12
9 6 4 3 5 12 2 10 11 9 13 14 12 13 18 18 15 14 21 14 12 12 13 13 14 17 18 15 13 13 9 12 13 13 12 14 15 14 17 13 13 13 12 13
5 6 6 8 8 8 6 4 3 10 2 14 14 16 14 15 9 11 22 17 15 14 22 19 17 15 15 12 10 11 11 13 13 12 13 11 15 13 17 15 12 14 14 13
3 4 10 9 7 5 3 7 9 6 5 13 15 14 13 11 11 16 18 15 13 14 17 15 13 11 12 12 12 12 13 13 11 11 10 13 17 14 16 14 14 13 14 16
4 3 3 4 8 8 13 4 6 5 9 11 14 15 15 16 17 16 15 15 12 14 17 13 8 9 11 10 12 11 12 12 12 11 11 13 15 15 15 14 14 16 17 17
4 5 3 2 1 5 6 8 8 7 10 13 15 15 17 18 17 16 15 11 11 17 11 7 7 8 11 10 10 12 13 14 12 10 11 11 12 13 15 16 15 10 10 14
2 10 4 3 5 9 6 10 11 10 12 12 15 17 16 15 16 14 9 10 14 9 7 7 8 10 8 9 11 10 12 13 11 11 11 12 13 9 9 9 13 20 16 12
5 3 4 4 7 10 11 9 11 12 14 15 14 13 14 13 11 9 9 10 8 5 8 9 7 5 8 10 9 11 10 16 17 9 11 12 14 9 9 11 13 17 17 16
5 4 1 2 7 6 9 8 10 12 13 11 12 12 10 9 9 10 10 7 7 10 5 4 3 7 10 13 15 14 13 14 15 13 9 12 10 11 11 12 10 12 15 13
Wind_Direction
223 234 238 248 246 254 282 308 307 306 118 179 200 256 208 182 194 248 254 233 214 188 161 165 174 166 166 166 205 205 344 348 23 347 349 348 340 330 333 338 334 306 308 314
270 244 261 328 342 322 311 297 275 208 137 190 276 275 268 278 189 239 262 251 237 165 157 163 176 183 169 180 209 273 355 335 1 339 10 339 333 334 338 330 308 308 314 303
269 304 60 334 298 271 271 262 270 322 94 152 259 263 267 247 180 208 240 240 226 163 160 169 182 189 199 196 238 266 340 343 348 338 338 337 333 340 332 315 324 317 306 311
278 27 4 301 273 275 272 3 336 326 304 288 274 299 244 237 170 177 197 214 202 175 159 193 185 177 227 216 268 290 325 351 348 345 344 340 342 333 323 323 315 313 310 315
300 343 263 272 316 3 302 12 319 305 292 289 280 275 271 259 160 157 169 173 181 172 203 179 195 184 165 257 256 291 303 332 338 335 342 339 331 326 324 325 321 321 316 307
283 16 289 299 346 315 323 304 290 284 266 258 357 12 324 33 66 126 176 175 190 168 142 176 149 203 279 263 268 267 310 308 322 321 329 323 322 324 328 324 316 318 312 309
253 257 150 8 290 262 224 270 286 274 264 239 11 157 242 178 163 20 149 167 180 149 179 192 244 248 262 258 282 276 285 302 306 316 321 321 322 325 321 311 318 309 315 317
315 303 125 142 297 323 314 234 277 310 306 329 243 242 89 48 47 40 44 31 140 131 78 357 272 286 293 305 336 342 318 323 321 315 315 324 329 315 313 314 313 317 315 319
321 292 255 246 307 305 302 295 4 283 285 286 312 64 7 4 81 65 52 23 31 59 209 2 342 334 310 314 319 304 297 301 290 305 320 324 322 323 318 315 315 317 317 317
302 297 299 127 317 269 251 300 309 288 309 286 301 10 164 66 54 39 36 53 40 10 352 350 19 322 309 305 314 331 339 319 324 317 319 320 322 315 319 316 318 320 319 313
294 283 287 292 255 329 171 259 6 287 271 314 301 49 75 62 50 29 10 17 13 348 336 329 328 332 0 354 332 341 341 329 318 328 322 328 321 325 319 320 320 322 318 317
341 316 297 299 285 251 314 303 304 285 293 309 322 281 115 70 63 40 12 358 6 351 339 337 340 1 357 355 342 343 327 326 326 322 328 332 322 332 325 326 321 318 312 315
352 280 297 291 70 331 303 292 238 275 282 282 289 283 0 23 13 16 5 353 346 350 339 347 358 352 349 351 350 336 326 327 333 325 327 325 324 314 319 331 348 339 335 336
345 280 274 279 298 254 222 267 269 250 279 269 266 297 167 85 233 337 1 357 338 343 7 359 355 348 345 336 322 326 332 335 327 330 327 323 324 326 343 345 329 336 343 348
222 288 291 289 292 300 301 289 275 280 274 244 265 288 27 24 8 357 358 344 342 2 2 354 352 349 340 332 331 328 325 325 318 322 327 324 320 328 347 331 331 335 337 336
245 280 292 286 282 276 300 304 303 281 276 284 310 41 4 14 9 353 355 6 0 356 349 352 351 341 337 333 328 332 326 321 323 328 333 341 351 342 335 340 337 330 338 343
304 280 293 292 304 319 301 305 334 13 3 344 320 37 38 17 359 21 27 16 354 344 357 352 343 336 331 333 332 331 325 328 333 347 1 343 340 334 341 333 337 344 343 349
275 290 289 297 302 285 350 46 9 329 28 25 31 17 13 4 347 55 28 5 348 0 356 348 341 333 337 336 332 347 345 348 11 352 341 343 340 345 351 354 352 356 5 4
190 263 279 251 282 263 15 14 21 17 63 35 23 0 346 343 338 93 4 34 32 13 2 349 342 343 342 341 346 349 39 12 351 344 346 352 4 5 354 348 2 4 6 8
233 224 245 263 266 283 54 158 263 282 170 11 1 343 7 353 348 340 341 14 16 11 350 345 346 349 357 6 50 20 356 346 349 342 4 5 356 352 359 7 18 15 16 24
217 254 230 230 241 84 11 264 296 275 16 345 342 15 11 359 341 334 359 11 11 357 353 354 353 18 49 26 9 352 347 355 352 4 17 10 9 7 356 13 17 16 24 26
267 207 309 281 267 241 355 35 40 26 349 338 353 15 358 343 338 353 0 1 357 352 351 358 47 33 19 359 352 356 10 9 22 22 18 13 12 12 8 21 29 30 27 18
331 40 324 104 104 191 71 53 53 20 354 360 351 359 355 340 344 354 358 348 342 344 356 43 32 2 4 359 359 7 12 11 2 6 1 1 354 10 20 23 19 12 22 16
121 12 304 344 102 51 23 65 42 13 15 3 4 2 355 356 344 351 345 341 341 354 23 77 17 358 9 29 359 1 352 348 345 347 357 3 352 356 356 29 15 6 24 31
106 200 26 325 35 84 57 44 28 7 1 358 359 6 357 355 358 352 338 333 352 31 97 57 18 8 346 339 354 359 346 337 330 334 10 354 352 7 12 19 31 14 24 19
38 30 301 64 59 5 59 29 24 9 1 10 4 4 15 13 358 8 27 48 68 97 73 19 8 334 343 350 4 350 358 43 49 25 12 8 14 29 42 36 32 18 20 27